EUTELSAT 117 WEST B (41589 NORAD) Tracking and Keplerian Element Data

This shows tracking and keplerian element data for the satellite.

Feedback or suggestion? Click here.




ElementValue
Catalog41589
NameEUTELSAT 117 WEST B
Epoch Orbit1018
Epoch Day80.70290927
Epoch Year2019
RAAN8.1483
Inclination0.0443
Eccentricity4.05E-05
Argument of Perigee129.1464
Mean Anonmoly177.6666
Mean Motion1.00272516
Decay Rate-3.7E-07
L11 41589U 16038B 19080.70290927 -.00000037 00000-0 00000+0 0 9999
L22 41589 0.0443 8.1483 0000405 129.1464 177.6666 1.00272516 10183

Live tracking and technical data element details for EUTELSAT 117 WEST B (NORAD 41589). EUTELSAT 117 WEST B can be tracked NOW for your location showing map with azimuth and elevation plus other details from your city location.

Track the satellite on the map from your city or location and see movement details for azimuth, elevation, latitude, longitude, range, height, and movement on the map or in text.







IsCatalogInMostPopularTable: catalog: 41589, numindb: 203
Update: records affected: 1



GetName: 41589 EUTELSAT 117 WEST B

Hit Count: updated at: Sat, 23 Mar 2019 01:01:38 GMT